Time,TemperatureF,DewpointF,PressureIn,WindDirection,WindDirectionDegrees,WindSpeedMPH,WindSpeedGustMPH,Humidity,HourlyPrecipIn,Conditions,Clouds,dailyrainin,SoftwareType,DateUTC
2013-07-09 00:14:00,63.2,41.0,31.78,NNW,337,10.0,17.0,45,0.00,,,0.04,weatherlink.com 1.10,2013-07-09 06:14:00,
2013-07-09 00:26:00,63.2,41.0,31.78,NNW,344,8.0,14.0,45,0.00,,,0.00,weatherlink.com 1.10,2013-07-09 06:26:00,
2013-07-09 00:45:00,63.1,41.0,31.78,NNW,338,12.0,16.0,45,0.00,,,0.00,weatherlink.com 1.10,2013-07-09 06:45:00,
2013-07-09 00:57:00,63.0,41.0,31.78,NNW,344,8.0,16.0,44,0.00,,,0.00,weatherlink.com 1.10,2013-07-09 06:57:00,
2013-07-09 01:16:00,62.7,41.0,31.79,NNW,329,9.0,13.0,45,0.00,,,0.00,weatherlink.com 1.10,2013-07-09 07:16:00,
2013-07-09 01:27:00,62.8,40.0,31.79,NW,306,8.0,13.0,44,0.00,,,0.00,weatherlink.com 1.10,2013-07-09 07:27:00,
2013-07-09 01:48:00,62.3,41.0,31.79,NW,305,9.0,14.0,46,0.00,,,0.00,weatherlink.com 1.10,2013-07-09 07:48:00,
2013-07-09 01:56:00,62.6,41.0,31.80,NW,308,12.0,12.0,46,0.00,,,0.00,weatherlink.com 1.10,2013-07-09 07:56:00,
2013-07-09 02:12:00,62.4,42.0,31.80,NW,311,13.0,13.0,47,0.00,,,0.00,weatherlink.com 1.10,2013-07-09 08:12:00,
2013-07-09 02:27:00,62.2,42.0,31.80,NW,306,9.0,14.0,47,0.00,,,0.00,weatherlink.com 1.10,2013-07-09 08:27:00,
2013-07-09 02:42:00,61.6,42.0,31.81,NW,309,11.0,15.0,48,0.00,,,0.00,weatherlink.com 1.10,2013-07-09 08:42:00,
2013-07-09 02:57:00,61.4,41.0,31.82,WNW,292,11.0,14.0,48,0.00,,,0.00,weatherlink.com 1.10,2013-07-09 08:57:00,
2013-07-09 03:12:00,60.6,42.0,31.82,NNW,331,10.0,13.0,50,0.00,,,0.00,weatherlink.com 1.10,2013-07-09 09:12:00,
2013-07-09 03:27:00,60.2,42.0,31.82,NW,304,8.0,12.0,51,0.00,,,0.00,weatherlink.com 1.10,2013-07-09 09:27:00,
2013-07-09 03:42:00,59.4,42.0,31.83,NW,313,8.0,11.0,52,0.00,,,0.00,weatherlink.com 1.10,2013-07-09 09:42:00,
2013-07-09 03:57:00,60.2,42.0,31.83,NW,304,10.0,13.0,52,0.00,,,0.00,weatherlink.com 1.10,2013-07-09 09:57:00,
2013-07-09 04:12:00,60.2,42.0,31.83,NW,320,7.0,11.0,52,0.00,,,0.00,weatherlink.com 1.10,2013-07-09 10:12:00,
2013-07-09 04:27:00,59.3,42.0,31.84,NNW,338,6.0,11.0,54,0.00,,,0.00,weatherlink.com 1.10,2013-07-09 10:27:00,
2013-07-09 04:43:00,59.1,42.0,31.84,NW,309,7.0,9.0,54,0.00,,,0.00,weatherlink.com 1.10,2013-07-09 10:43:00,
2013-07-09 04:57:00,58.1,42.0,31.85,NW,326,5.0,9.0,56,0.00,,,0.00,weatherlink.com 1.10,2013-07-09 10:57:00,
2013-07-09 05:12:00,58.6,43.0,31.86,NW,310,8.0,9.0,56,0.00,,,0.00,weatherlink.com 1.10,2013-07-09 11:12:00,
2013-07-09 05:27:00,59.4,43.0,31.85,NW,306,4.0,9.0,55,0.00,,,0.00,weatherlink.com 1.10,2013-07-09 11:27:00,
2013-07-09 05:42:00,59.1,43.0,31.86,NW,318,5.0,7.0,56,0.00,,,0.00,weatherlink.com 1.10,2013-07-09 11:42:00,
2013-07-09 05:57:00,58.5,42.0,31.87,NW,308,2.0,7.0,55,0.00,,,0.00,weatherlink.com 1.10,2013-07-09 11:57:00,
2013-07-09 06:12:00,57.2,42.0,31.87,ESE,106,0.0,2.0,58,0.00,,,0.00,weatherlink.com 1.10,2013-07-09 12:12:00,
2013-07-09 06:27:00,56.9,43.0,31.88,NNW,345,4.0,5.0,60,0.00,,,0.00,weatherlink.com 1.10,2013-07-09 12:27:00,
2013-07-09 07:13:00,57.8,44.0,31.89,NNW,336,4.0,6.0,60,0.00,,,0.00,weatherlink.com 1.10,2013-07-09 13:13:00,
2013-07-09 07:27:00,57.3,43.0,31.90,ESE,119,3.0,4.0,60,0.00,,,0.00,weatherlink.com 1.10,2013-07-09 13:27:00,
2013-07-09 07:42:00,57.3,43.0,31.90,NE,36,0.0,4.0,60,0.00,,,0.00,weatherlink.com 1.10,2013-07-09 13:42:00,
2013-07-09 07:57:00,58.6,44.0,31.90,ESE,119,3.0,4.0,58,0.00,,,0.00,weatherlink.com 1.10,2013-07-09 13:57:00,
2013-07-09 08:12:00,58.0,44.0,31.90,SE,128,1.0,5.0,60,0.00,,,0.00,weatherlink.com 1.10,2013-07-09 14:12:00,
2013-07-09 08:27:00,59.5,44.0,31.91,ESE,117,5.0,7.0,57,0.00,,,0.00,weatherlink.com 1.10,2013-07-09 14:27:00,
2013-07-09 08:42:00,60.2,45.0,31.91,SE,136,4.0,6.0,57,0.00,,,0.00,weatherlink.com 1.10,2013-07-09 14:42:00,
2013-07-09 08:57:00,61.3,45.0,31.91,SSE,161,1.0,3.0,55,0.00,,,0.00,weatherlink.com 1.10,2013-07-09 14:57:00,
2013-07-09 09:12:00,60.8,45.0,31.91,SSW,208,0.0,4.0,57,0.00,,,0.00,weatherlink.com 1.10,2013-07-09 15:12:00,
2013-07-09 09:27:00,61.0,46.0,31.90,South,182,0.0,3.0,58,0.00,,,0.00,weatherlink.com 1.10,2013-07-09 15:27:00,
2013-07-09 09:42:00,61.6,46.0,31.91,WSW,244,3.0,4.0,57,0.00,,,0.00,weatherlink.com 1.10,2013-07-09 15:42:00,
2013-07-09 09:58:00,62.2,46.0,31.90,SSW,200,3.0,5.0,55,0.00,,,0.00,weatherlink.com 1.10,2013-07-09 15:58:00,
2013-07-09 10:13:00,63.5,45.0,31.90,SSW,205,1.0,4.0,52,0.00,,,0.00,weatherlink.com 1.10,2013-07-09 16:13:00,
2013-07-09 10:28:00,64.7,46.0,31.89,South,175,4.0,7.0,51,0.00,,,0.00,weatherlink.com 1.10,2013-07-09 16:28:00,
2013-07-09 10:43:00,66.0,46.0,31.89,South,189,3.0,12.0,48,0.00,,,0.00,weatherlink.com 1.10,2013-07-09 16:43:00,
2013-07-09 10:58:00,65.9,45.0,31.89,SE,127,2.0,7.0,47,0.00,,,0.00,weatherlink.com 1.10,2013-07-09 16:58:00,
2013-07-09 11:13:00,66.3,45.0,31.88,SW,217,1.0,11.0,46,0.00,,,0.00,weatherlink.com 1.10,2013-07-09 17:13:00,
2013-07-09 11:28:00,68.0,46.0,31.88,WSW,252,3.0,5.0,45,0.00,,,0.00,weatherlink.com 1.10,2013-07-09 17:28:00,
2013-07-09 11:58:00,68.9,44.0,31.87,WSW,248,2.0,6.0,41,0.00,,,0.00,weatherlink.com 1.10,2013-07-09 17:58:00,
2013-07-09 12:50:00,69.9,42.0,31.85,WSW,240,4.0,11.0,36,0.00,,,0.00,weatherlink.com 1.10,2013-07-09 18:50:00,
2013-07-09 13:04:00,71.2,41.0,31.84,WSW,246,7.0,10.0,34,0.00,,,0.00,weatherlink.com 1.10,2013-07-09 19:04:00,
2013-07-09 13:14:00,71.7,42.0,31.84,SSW,204,6.0,9.0,34,0.00,,,0.00,weatherlink.com 1.10,2013-07-09 19:14:00,
2013-07-09 13:29:00,71.6,42.0,31.83,SW,224,5.0,9.0,35,0.00,,,0.00,weatherlink.com 1.10,2013-07-09 19:29:00,
2013-07-09 13:44:00,71.6,41.0,31.83,WNW,301,2.0,13.0,33,0.00,,,0.00,weatherlink.com 1.10,2013-07-09 19:44:00,
2013-07-09 13:59:00,72.5,42.0,31.82,West,275,5.0,13.0,33,0.00,,,0.00,weatherlink.com 1.10,2013-07-09 19:59:00,
2013-07-09 14:14:00,72.4,42.0,31.82,SE,130,4.0,13.0,34,0.00,,,0.00,weatherlink.com 1.10,2013-07-09 20:14:00,
2013-07-09 14:29:00,74.4,43.0,31.81,NE,38,8.0,11.0,33,0.00,,,0.00,weatherlink.com 1.10,2013-07-09 20:29:00,
2013-07-09 14:44:00,73.1,45.0,31.81,WNW,286,9.0,15.0,36,0.00,,,0.00,weatherlink.com 1.10,2013-07-09 20:44:00,
2013-07-09 14:59:00,73.7,43.0,31.80,West,277,11.0,14.0,33,0.00,,,0.00,weatherlink.com 1.10,2013-07-09 20:59:00,
2013-07-09 15:14:00,73.8,44.0,31.80,West,266,4.0,16.0,35,0.00,,,0.00,weatherlink.com 1.10,2013-07-09 21:14:00,
2013-07-09 15:29:00,74.2,43.0,31.79,West,275,17.0,22.0,33,0.00,,,0.00,weatherlink.com 1.10,2013-07-09 21:29:00,
2013-07-09 15:44:00,74.2,43.0,31.79,NW,306,11.0,21.0,33,0.00,,,0.00,weatherlink.com 1.10,2013-07-09 21:44:00,
2013-07-09 15:59:00,74.8,43.0,31.78,WNW,292,15.0,20.0,32,0.00,,,0.00,weatherlink.com 1.10,2013-07-09 21:59:00,
2013-07-09 16:14:00,75.6,42.0,31.78,NW,306,12.0,20.0,30,0.00,,,0.00,weatherlink.com 1.10,2013-07-09 22:14:00,
2013-07-09 16:29:00,76.4,42.0,31.77,West,271,13.0,19.0,29,0.00,,,0.00,weatherlink.com 1.10,2013-07-09 22:29:00,
2013-07-09 16:44:00,76.4,42.0,31.77,West,273,11.0,22.0,29,0.00,,,0.00,weatherlink.com 1.10,2013-07-09 22:44:00,
2013-07-09 16:59:00,76.7,41.0,31.76,West,261,8.0,21.0,28,0.00,,,0.00,weatherlink.com 1.10,2013-07-09 22:59:00,
2013-07-09 17:14:00,77.3,42.0,31.76,WNW,287,16.0,20.0,28,0.00,,,0.00,weatherlink.com 1.10,2013-07-09 23:14:00,
2013-07-09 17:29:00,77.9,41.0,31.75,WSW,257,8.0,17.0,27,0.00,,,0.00,weatherlink.com 1.10,2013-07-09 23:29:00,
2013-07-09 17:44:00,77.6,41.0,31.75,West,271,5.0,17.0,27,0.00,,,0.00,weatherlink.com 1.10,2013-07-09 23:44:00,
2013-07-09 17:59:00,77.9,42.0,31.74,West,259,11.0,17.0,28,0.00,,,0.00,weatherlink.com 1.10,2013-07-09 23:59:00,
2013-07-09 18:14:00,78.3,41.0,31.73,WSW,246,8.0,19.0,26,0.00,,,0.00,weatherlink.com 1.10,2013-07-10 00:14:00,
2013-07-09 18:29:00,78.3,41.0,31.73,NNW,327,3.0,16.0,26,0.00,,,0.00,weatherlink.com 1.10,2013-07-10 00:29:00,
2013-07-09 18:44:00,78.2,40.0,31.72,West,274,9.0,13.0,25,0.00,,,0.00,weatherlink.com 1.10,2013-07-10 00:44:00,
2013-07-09 18:59:00,78.2,41.0,31.72,WSW,252,14.0,16.0,26,0.00,,,0.00,weatherlink.com 1.10,2013-07-10 00:59:00,
2013-07-09 19:14:00,78.1,40.0,31.71,WSW,257,9.0,14.0,26,0.00,,,0.00,weatherlink.com 1.10,2013-07-10 01:14:00,
2013-07-09 19:29:00,78.0,40.0,31.71,NW,304,10.0,15.0,26,0.00,,,0.00,weatherlink.com 1.10,2013-07-10 01:29:00,
2013-07-09 19:44:00,78.3,39.0,31.71,WNW,284,8.0,10.0,24,0.00,,,0.00,weatherlink.com 1.10,2013-07-10 01:44:00,
2013-07-09 19:59:00,78.5,38.0,31.71,WSW,242,4.0,8.0,23,0.00,,,0.00,weatherlink.com 1.10,2013-07-10 01:59:00,
2013-07-09 20:14:00,77.1,40.0,31.71,WNW,283,5.0,14.0,26,0.00,,,0.00,weatherlink.com 1.10,2013-07-10 02:14:00,
2013-07-09 20:29:00,76.9,41.0,31.71,NW,309,4.0,14.0,28,0.00,,,0.00,weatherlink.com 1.10,2013-07-10 02:29:00,
2013-07-09 20:44:00,76.4,40.0,31.71,NNW,338,7.0,13.0,27,0.00,,,0.00,weatherlink.com 1.10,2013-07-10 02:44:00,
2013-07-09 20:59:00,75.7,39.0,31.71,NNW,347,7.0,9.0,27,0.00,,,0.00,weatherlink.com 1.10,2013-07-10 02:59:00,
2013-07-09 21:14:00,74.9,40.0,31.72,NW,323,7.0,11.0,28,0.00,,,0.00,weatherlink.com 1.10,2013-07-10 03:14:00,
2013-07-09 21:29:00,74.2,37.0,31.72,NW,313,10.0,10.0,26,0.00,,,0.00,weatherlink.com 1.10,2013-07-10 03:29:00,
2013-07-09 21:44:00,73.9,36.0,31.73,NW,319,7.0,11.0,25,0.00,,,0.00,weatherlink.com 1.10,2013-07-10 03:44:00,
2013-07-09 21:59:00,74.2,36.0,31.73,NW,325,6.0,12.0,25,0.00,,,0.00,weatherlink.com 1.10,2013-07-10 03:59:00,
2013-07-09 22:14:00,73.8,36.0,31.74,NW,309,9.0,12.0,25,0.00,,,0.00,weatherlink.com 1.10,2013-07-10 04:14:00,
2013-07-09 22:29:00,73.7,36.0,31.74,NW,319,7.0,10.0,25,0.00,,,0.00,weatherlink.com 1.10,2013-07-10 04:29:00,
2013-07-09 22:44:00,73.5,36.0,31.75,NNW,331,7.0,10.0,25,0.00,,,0.00,weatherlink.com 1.10,2013-07-10 04:44:00,
2013-07-09 22:59:00,73.0,36.0,31.74,NNW,338,8.0,10.0,26,0.00,,,0.00,weatherlink.com 1.10,2013-07-10 04:59:00,
2013-07-09 23:14:00,72.3,35.0,31.74,NW,321,8.0,13.0,26,0.00,,,0.00,weatherlink.com 1.10,2013-07-10 05:14:00,
2013-07-09 23:29:00,72.3,35.0,31.74,WNW,300,8.0,14.0,25,0.00,,,0.00,weatherlink.com 1.10,2013-07-10 05:29:00,
2013-07-09 23:44:00,72.6,30.0,31.75,WNW,285,10.0,14.0,21,0.00,,,0.00,weatherlink.com 1.10,2013-07-10 05:44:00,